Weather in Noja

Spain     43°28′44″N   3°31′48″W
temp.,
°C
wind,
m/s
gust,
m/s
humid.,
%
clouds,
%
prec.,
mm/h
press.,
hPa
HPBL,
m
21 april, wed
wed2123:00+11ssw0187100 0.0 101571
02:00+11sw118899 0.1 101466
05:00+11sw119151 0.0 101486
08:00+10s22928 0.0 101465
11:00+13e127352 0.0 1014422
14:00+14ene557076 0.0 1013659
17:00+14ene6766100 0.0 1011513
20:00+13e5770100 0.0 1011321
22 april, thu
thu2223:00+12e587987 0.0 1011270
02:00+12ese4678100 0.1 1010172
05:00+13se4579100 0.0 1009106
08:00+13se458398 0.0 1011126
11:00+15ese447799 0.0 1013358
14:00+16ene557253 0.1 1014630
17:00+17e676813 0.4 1013442
20:00+16ese68705 0.6 1014151
23 april, fri
fri2323:00+13se45844 0.0 101688
02:00+12se45820 0.0 1016108
05:00+11se57825 0.0 1014157
08:00+11sse45826 0.0 1015131
11:00+17se35606 0.0 1014308
14:00+19ese4553100 0.0 1014631
17:00+21ese5853100 0.0 1013677
20:00+18ese5764100 0.0 101366
24 april, sat
sat2423:00+16se46739 0.0 101468
02:00+15sse457420 0.0 101459
05:00+13sse3475100 0.0 101362
08:00+13sse457235 0.0 101377
11:00+18se3456100 0.0 1013198
14:00+21ese4447100 0.0 1012598
17:00+21se4546100 0.0 1011660
20:00+19se4460100 0.0 101249
25 april, sun
sun2523:00+16se5669100 0.0 101373
02:00+15se4671100 0.0 101284
05:00+13sse227649 0.0 101132
08:00+13se4574100 0.0 1009118
11:00+16se5762100 0.0 1009291
14:00+14se5878100 0.5 1008319
17:00+14se3492100 3.6 1007162
20:00+15e3486100 4.1 100775